Погода в Сокольниках

Россия / Тверская область     56°53′47″N   34°02′30″E
темп.,
°C
ветер,
м/с
пор.,
м/с
влажн.,
%
обл.,
%
осадки,
мм/ч
давл.,
гПа
погр.,
м
14 августа, вс
вс1400:00+16ююв1181100 0.0 102211
03:00+15ю1183100 0.0 102111
06:00+15ююв118199 0.0 102111
09:00+21вюв126069 0.0 1021335
12:00+26вюв224542 0.0 10201515
15:00+27вюв223947 0.0 10201882
18:00+25вюв24505 0.0 1019302
21:00+19вюв22692 0.0 102015
15 августа, пн
пн1500:00+17в22730 0.0 102022
03:00+15в23825 0.0 102048
06:00+15вюв23835 0.0 102052
09:00+22юв245923 0.0 1020320
12:00+26юв3546100 0.0 10211134
15:00+27ююв343897 0.0 10201972
18:00+25юв015895 0.0 101998
21:00+21в396590 0.1 1020252
16 августа, вт
вт1600:00+18в267884 0.1 1020151
03:00+16в25847 0.1 102092
06:00+16вюв269094 0.4 1020124
09:00+20вюв3868100 0.6 1020326
12:00+26юв474283 0.3 10201082
15:00+27юв574175 0.3 10191376
18:00+26юв474779 0.0 1019903
21:00+20вюв396980 0.0 1020183
17 августа, ср
ср1700:00+18юв26685 0.0 1020109
03:00+16юв267265 0.0 102094
06:00+16в257630 0.0 102092
09:00+22в35585 0.0 1019334
12:00+26вюв46415 0.0 10191467
15:00+28вюв45375 0.0 10181895
18:00+26в35485 0.0 1018476
21:00+20всв38696 0.0 1018135
18 августа, чт
чт1800:00+17в247914 0.0 101869
03:00+17в228184 0.0 101918
06:00+16в238136 0.0 101957
09:00+23юв2457100 0.0 1018317
12:00+27юв233988 0.0 10181196
15:00+28вюв2236100 0.0 10181896
18:00+26вюв235446 0.0 101778
21:00+20вюв22675 0.0 101813